Pittsfield, IL

12:38 AM CST on February 21, 2017 (GMT -0600)
Pittsfield Penstone Municipal

Weather History for KPPQ - December, 2012

Change the Weather History Date:

Thursday, December 20, 2012

  Actual Average (KUIN) Record (KUIN)
Temperature  
Mean Temperature 39 °F -  
Max Temperature 53 °F 33 °F 66 °F (1949)
Min Temperature 24 °F 19 °F -19 °F (1901)
Degree Days  
Heating Degree Days 26    
Moisture  
Dew Point 34 °F    
Average Humidity 86    
Maximum Humidity 96    
Minimum Humidity 73    
Precipitation  
Precipitation 0.06 in - - ()
Sea Level Pressure  
Sea Level Pressure 29.50 in    
Wind  
Wind Speed 17 mph (WSW)    
Max Wind Speed 31 mph    
Max Gust Speed 47 mph    
Visibility 6 miles    
Events Rain , Snow , Thunderstorm    
Averages and records for this station are not official NWS values.
T = Trace of Precipitation, MM = Missing Value Source: NWS Daily Summary

Daily Weather History Graph

Daily Weather History Graph

Search for Another Location

Airport or City:

Trip Planner

Search our weather history database for the weather conditions in past years. The results will help you decide how hot, cold, wet, or windy it might be!

Date:

Astronomy

Dec. 20, 2012 Rise Set
Actual Time 7:20 AM CST 4:42 PM CST
Civil Twilight 6:49 AM CST 5:12 PM CST
Nautical Twilight 6:15 AM CST 5:46 PM CST
Astronomical Twilight 5:42 AM CST 6:19 PM CST
Moon 11:59 AM CST (12/20) 12:08 AM CST (12/20)
Length of Visible Light 10h 22m
Length of Day
9h 21m
First Quarter, 55% of the Moon is Illuminated
Dec 20
First Quarter
Dec 28
Full
Jan 4
Last Quarter
Jan 11
New
Jan 18
First Quarter

Hourly Weather History & Observations

Time (CST) Temp. Windchill Dew Point Humidity Pressure Visibility Wind Dir Wind Speed Gust Speed Precip Events Conditions
12:15 AM 45.7 °F 39.8 °F 43.3 °F 92% 29.48 in 5.0 mi SE 12.7 mph - N/A   Overcast
12:35 AM 46.0 °F 41.9 °F 43.7 °F 92% 29.47 in 5.0 mi SE 8.1 mph - N/A Thunderstorm Overcast
12:55 AM 46.4 °F 44.3 °F 44.6 °F 93% 29.46 in 5.0 mi SE 4.6 mph - N/A   Mostly Cloudy
1:15 AM 46.4 °F - 44.6 °F 93% 29.45 in 5.0 mi Calm Calm - N/A Rain , Thunderstorm Light Thunderstorms and Rain
1:35 AM 47.7 °F - 45.1 °F 91% 29.42 in 7.0 mi SE 12.7 mph 17.3 mph N/A Thunderstorm Unknown
1:55 AM 49.6 °F - 46.8 °F 90% 29.46 in 7.0 mi SSW 5.8 mph - N/A Rain Rain
2:15 AM 52.0 °F - 49.1 °F 90% 29.41 in 10.0 mi South 17.3 mph 20.7 mph 0.01 in Rain Light Rain
2:35 AM 52.7 °F - 50.0 °F 91% 29.39 in 10.0 mi South 19.6 mph 28.8 mph 0.02 in Rain Light Rain
2:55 AM 53.2 °F - 50.4 °F 90% 29.33 in 10.0 mi SE 21.9 mph 27.6 mph 0.03 in Rain Light Rain
3:15 AM 53.6 °F - 50.5 °F 89% 29.31 in 10.0 mi SSE 13.8 mph 20.7 mph N/A   Clear
3:35 AM 53.1 °F - 50.4 °F 91% 29.31 in 10.0 mi SE 11.5 mph - N/A   Clear
3:55 AM 52.5 °F - 50.0 °F 91% 29.29 in 10.0 mi SSE 16.1 mph - N/A   Clear
4:15 AM 52.5 °F - 50.0 °F 91% 29.27 in 10.0 mi SSE 15.0 mph - N/A   Clear
4:35 AM 52.5 °F - 50.0 °F 91% 29.25 in 10.0 mi SE 17.3 mph - N/A   Clear
4:55 AM 52.0 °F - 49.5 °F 91% 29.23 in 10.0 mi SSE 15.0 mph 20.7 mph N/A   Scattered Clouds
5:15 AM 52.0 °F - 50.0 °F 93% 29.21 in 10.0 mi SSE 17.3 mph - N/A   Overcast
5:35 AM 52.0 °F - 50.0 °F 93% 29.22 in 7.0 mi SSE 13.8 mph 20.7 mph N/A   Overcast
5:55 AM 52.0 °F - 50.0 °F 93% 29.21 in 7.0 mi SSE 12.7 mph 17.3 mph N/A   Overcast
6:15 AM 52.0 °F - 50.0 °F 93% 29.20 in 7.0 mi SSE 11.5 mph - N/A   Overcast
6:35 AM 52.2 °F - 50.2 °F 93% 29.19 in 5.0 mi SSE 11.5 mph - N/A Rain Rain
6:55 AM 52.9 °F - 50.9 °F 93% 29.18 in 7.0 mi South 10.4 mph - N/A   Light Drizzle
7:15 AM 53.6 °F - 50.9 °F 91% 29.18 in 7.0 mi South 11.5 mph 18.4 mph 0.03 in Rain Light Rain
7:35 AM 52.0 °F - 44.6 °F 76% 29.18 in 10.0 mi SW 19.6 mph 29.9 mph 0.03 in Rain Light Rain
7:55 AM 50.2 °F - 44.1 °F 79% 29.19 in 10.0 mi SW 26.5 mph 34.5 mph 0.03 in   Overcast
8:15 AM 47.5 °F - 40.5 °F 77% 29.20 in 10.0 mi SW 26.5 mph 38.0 mph N/A   Overcast
8:35 AM 45.1 °F 35.8 °F 37.8 °F 75% 29.21 in 10.0 mi SW 27.6 mph 38.0 mph N/A Rain Light Rain
8:55 AM 43.0 °F 34.0 °F 38.5 °F 84% 29.22 in 4.0 mi SW 21.9 mph 32.2 mph N/A   Light Drizzle
9:15 AM 41.9 °F 34.0 °F 38.1 °F 86% 29.22 in 4.0 mi SW 16.1 mph 31.1 mph N/A   Overcast
9:35 AM 41.0 °F 33.9 °F 38.5 °F 91% 29.22 in 1.8 mi SSW 12.7 mph 21.9 mph N/A   Overcast
9:55 AM 40.8 °F 32.3 °F 38.8 °F 93% 29.23 in 1.5 mi WSW 17.3 mph 24.2 mph N/A   Drizzle
10:15 AM 38.5 °F 28.3 °F 36.3 °F 92% 29.24 in 1.8 mi WNW 20.7 mph 26.5 mph N/A   Light Drizzle
10:35 AM 37.4 °F 27.5 °F 35.1 °F 91% 29.26 in 2.5 mi WNW 18.4 mph 26.5 mph N/A Rain Rain
10:55 AM 35.6 °F 25.5 °F 33.6 °F 92% 29.28 in 3.0 mi WNW 17.3 mph 29.9 mph N/A Rain Rain
11:15 AM 34.0 °F 22.4 °F 32.4 °F 94% 29.30 in 0.8 mi West 20.7 mph 29.9 mph N/A Snow Light Snow
11:35 AM 33.3 °F 21.5 °F 32.0 °F 95% 29.32 in 0.5 mi WNW 20.7 mph 28.8 mph N/A Snow Snow
11:55 AM 33.1 °F 20.6 °F 32.0 °F 96% 29.33 in 0.2 mi West 23.0 mph 34.5 mph N/A Snow Heavy Snow
12:15 PM 32.9 °F 20.1 °F 32.0 °F 96% 29.35 in 0.2 mi WNW 24.2 mph 35.7 mph N/A Snow Heavy Snow
12:35 PM 32.5 °F 19.6 °F 31.1 °F 94% 29.37 in 0.5 mi WNW 24.2 mph 38.0 mph N/A Snow Snow
12:55 PM 32.0 °F 18.1 °F 30.7 °F 95% 29.38 in 0.2 mi West 27.6 mph 40.3 mph N/A Snow Snow
1:15 PM 32.0 °F 19.5 °F 30.2 °F 93% 29.41 in 0.2 mi West 21.9 mph 38.0 mph N/A Snow Snow
1:35 PM 32.0 °F 18.1 °F 29.8 °F 92% 29.43 in 0.5 mi WNW 27.6 mph 39.1 mph N/A Snow Light Snow
1:55 PM 31.6 °F 18.7 °F 29.7 °F 92% 29.46 in 0.5 mi West 23.0 mph 39.1 mph N/A Snow Light Snow
2:15 PM 31.5 °F 17.4 °F 29.3 °F 92% 29.48 in 0.5 mi West 27.6 mph 40.3 mph N/A Snow Snow
2:35 PM 30.9 °F 17.2 °F 28.4 °F 90% 29.51 in 0.5 mi West 25.3 mph 38.0 mph N/A Snow Snow
2:55 PM 30.2 °F 14.9 °F 27.7 °F 90% 29.54 in 0.5 mi West 31.1 mph 44.9 mph N/A Snow Light Snow
3:15 PM 30.2 °F 15.2 °F 27.5 °F 90% 29.56 in 0.8 mi West 29.9 mph 39.1 mph N/A Snow Light Snow
3:35 PM 29.8 °F 15.5 °F 27.0 °F 89% 29.60 in 0.8 mi West 26.5 mph 39.1 mph N/A Snow Light Snow
3:55 PM 29.3 °F 14.2 °F 25.7 °F 86% 29.63 in 0.8 mi West 28.8 mph 42.6 mph N/A Snow Light Snow
4:15 PM 29.1 °F 13.7 °F 25.2 °F 85% 29.65 in 0.8 mi WNW 29.9 mph 46.0 mph N/A Snow Light Snow
4:35 PM 29.3 °F 14.2 °F 25.2 °F 85% 29.67 in 1.8 mi WNW 28.8 mph 40.3 mph N/A Snow Light Snow
4:55 PM 29.1 °F 13.7 °F 24.4 °F 83% 29.69 in 1.8 mi WNW 29.9 mph 47.2 mph N/A Snow Light Snow
5:15 PM 28.8 °F 14.3 °F 24.1 °F 83% 29.71 in 2.5 mi WNW 25.3 mph 40.3 mph N/A Snow Light Snow
5:35 PM 28.8 °F 14.3 °F 23.7 °F 81% 29.73 in 5.0 mi West 25.3 mph 38.0 mph N/A   Haze
5:55 PM 28.9 °F 13.2 °F 23.7 °F 81% 29.74 in 5.0 mi West 31.1 mph 42.6 mph N/A   Haze
6:15 PM 28.6 °F 13.5 °F 23.0 °F 80% 29.76 in 5.0 mi West 27.6 mph 43.7 mph N/A   Haze
6:35 PM 28.6 °F 14.1 °F 21.9 °F 76% 29.77 in 7.0 mi West 25.3 mph 38.0 mph N/A   Overcast
6:55 PM 28.4 °F 14.4 °F 22.1 °F 77% 29.79 in 5.0 mi WNW 23.0 mph 39.1 mph N/A   Haze
7:15 PM 28.4 °F 14.4 °F 21.9 °F 77% 29.80 in 10.0 mi West 23.0 mph 31.1 mph N/A   Overcast
7:35 PM 28.0 °F 13.0 °F 21.7 °F 77% 29.81 in 10.0 mi West 26.5 mph 35.7 mph N/A   Overcast
7:55 PM 27.9 °F 14.0 °F 21.6 °F 77% 29.83 in 10.0 mi WNW 21.9 mph 35.7 mph N/A   Overcast
8:15 PM 27.5 °F 14.6 °F 21.4 °F 78% 29.84 in 10.0 mi West 18.4 mph 34.5 mph N/A   Overcast
8:35 PM 27.3 °F 13.3 °F 20.7 °F 76% 29.85 in 7.0 mi West 21.9 mph 38.0 mph N/A   Overcast
8:55 PM 26.6 °F 11.4 °F 20.3 °F 77% 29.86 in 10.0 mi West 25.3 mph 36.8 mph N/A   Overcast
9:15 PM 26.6 °F 12.0 °F 19.4 °F 74% 29.87 in 10.0 mi West 23.0 mph 33.4 mph N/A   Scattered Clouds
9:35 PM 26.4 °F 13.6 °F 19.4 °F 75% 29.88 in 10.0 mi WNW 17.3 mph 34.5 mph N/A   Scattered Clouds
9:55 PM 26.2 °F 12.6 °F 19.2 °F 75% 29.88 in 10.0 mi WNW 19.6 mph 33.4 mph N/A   Clear
10:15 PM 26.1 °F 11.3 °F 18.9 °F 74% 29.89 in 10.0 mi West 23.0 mph 33.4 mph N/A   Scattered Clouds
10:35 PM 25.7 °F 11.9 °F 18.7 °F 75% 29.90 in 10.0 mi West 19.6 mph 33.4 mph N/A   Clear
10:55 PM 25.7 °F 12.7 °F 18.3 °F 74% 29.91 in 10.0 mi West 17.3 mph 34.5 mph N/A   Scattered Clouds
11:15 PM 25.3 °F 10.3 °F 18.1 °F 74% 29.92 in 10.0 mi West 23.0 mph 32.2 mph N/A   Clear
11:35 PM 25.2 °F 10.8 °F 17.6 °F 73% 29.93 in 10.0 mi West 20.7 mph 35.7 mph N/A   Scattered Clouds
11:55 PM 24.8 °F 10.7 °F 17.6 °F 74% 29.94 in 10.0 mi West 19.6 mph 28.8 mph N/A   Scattered Clouds